Date,TemperatureHighF,TemperatureAvgF,TemperatureLowF,DewpointHighF,DewpointAvgF,DewpointLowF,HumidityHigh,HumidityAvg,HumidityLow,PressureMaxIn,PressureMinIn,WindSpeedMaxMPH,WindSpeedAvgMPH,GustSpeedMaxMPH,PrecipitationSumIn
2013-1-1,56,54,53,-100,-100,-100,0,0,100,30.24,30.12,9,5,13,0.00
2013-1-2,57,56,53,-100,-100,-100,0,0,100,30.16,30.06,13,8,18,0.00
2013-1-3,58,56,54,-100,-100,-100,0,0,100,30.19,30.06,11,5,13,0.00
2013-1-4,58,55,52,-100,-100,-100,0,0,100,30.27,30.17,4,2,7,0.00
2013-1-5,56,54,50,-100,-100,-100,0,0,100,30.30,30.19,11,4,16,0.00
2013-1-6,55,53,50,-100,-100,-100,0,0,100,30.22,30.05,27,13,31,0.00
2013-1-7,58,55,52,-100,-100,-100,0,0,100,30.14,30.02,18,11,25,0.00
2013-1-8,58,56,54,-100,-100,-100,0,0,100,30.11,30.03,9,4,11,0.00
2013-1-9,56,55,53,-100,-100,-100,0,0,100,30.12,30.01,9,5,11,0.00
2013-1-10,55,52,50,-100,-100,-100,0,0,100,30.14,29.96,31,26,40,0.00
2013-1-11,53,48,48,-100,-100,-100,0,0,100,30.21,30.11,25,20,29,0.00
2013-1-12,54,51,50,-100,-100,-100,0,0,100,30.18,30.09,20,10,22,0.00
2013-1-13,53,51,49,-100,-100,-100,0,0,100,30.19,30.05,20,11,25,0.00
2013-1-14,51,50,47,-100,-100,-100,0,0,100,30.36,30.13,20,10,27,0.00
2013-1-15,53,52,49,-100,-100,-100,0,0,100,30.46,30.36,16,6,16,0.00
2013-1-16,56,54,52,-100,-100,-100,0,0,100,30.37,30.16,9,5,11,0.00
2013-1-17,58,55,53,-100,-100,-100,0,0,100,30.19,30.08,9,4,9,0.00
2013-1-18,59,57,54,-100,-100,-100,0,0,100,30.16,30.07,7,3,7,0.00
2013-1-19,66,57,54,-100,-100,-100,0,0,100,30.18,30.09,9,4,11,0.00
2013-1-20,62,57,54,-100,-100,-100,0,0,100,30.14,30.03,11,4,13,0.00
2013-1-21,60,57,55,-100,-100,-100,0,0,100,30.11,29.99,11,4,11,0.00
2013-1-22,60,57,54,-100,-100,-100,0,0,100,30.08,30.03,7,3,11,0.00
2013-1-23,64,58,56,-100,-100,-100,0,0,100,30.08,29.99,20,7,22,0.00
2013-1-24,59,56,54,-100,-100,-100,0,0,100,30.15,30.06,22,14,29,0.00
2013-1-25,57,57,56,-100,-100,-100,0,0,100,30.12,29.97,11,5,13,0.00
2013-1-26,58,55,53,-100,-100,-100,0,0,100,29.98,29.89,25,11,29,0.00
2013-1-27,56,54,53,-100,-100,-100,0,0,100,30.08,29.98,29,23,36,0.00
2013-1-28,56,53,51,-100,-100,-100,0,0,100,30.20,30.08,27,21,31,0.00
2013-1-29,55,54,53,-100,-100,-100,0,0,100,30.21,30.14,22,14,27,0.00
2013-1-30,56,55,53,-100,-100,-100,0,0,100,30.32,30.21,11,6,13,0.00
2013-1-31,57,56,54,-100,-100,-100,0,0,100,30.22,30.11,9,5,11,0.00